This is the latest recevied weather packets stored in our database for station/object IU3NMQ-10. If no packets are shown the sender has not sent any weather packets the latest 10 day(s).
| Time | Temp. | Humidity | Pressure | Rain* | Wind** | Luminosity | Snow |
|---|---|---|---|---|---|---|---|
| 1788083287 | 32.78° C | 49% | 1011.9 hPa | - | - | - | - |
| 1788082387 | 32.78° C | 51% | 1011.9 hPa | - | - | - | - |
| 1788081487 | 32.22° C | 51% | 1012 hPa | - | - | - | - |
| 1788080586 | 31.67° C | 52% | 1012.1 hPa | - | - | - | - |
| 1788079686 | 31.67° C | 54% | 1012 hPa | - | - | - | - |
| 1788078786 | 31.11° C | 54% | 1011.9 hPa | - | - | - | - |
| 1788077886 | 30.56° C | 58% | 1012 hPa | - | - | - | - |
| 1788076986 | 30° C | 60% | 1012 hPa | - | - | - | - |
| 1788076086 | 29.44° C | 65% | 1011.9 hPa | - | - | - | - |
| 1788075186 | 28.33° C | 67% | 1011.8 hPa | - | - | - | - |
| 1788074285 | 27.78° C | 70% | 1011.8 hPa | - | - | - | - |
| 1788073384 | 26.67° C | 70% | 1011.8 hPa | - | - | - | - |
| 1788072617 | 26.11° C | 71% | 1011.7 hPa | - | - | - | - |
| 1788072567 | 26.11° C | 71% | 1011.7 hPa | - | - | - | - |
| 1788072484 | 26.11° C | 71% | 1011.7 hPa | - | - | - | - |
| 1788071966 | 25.56° C | 73% | 1011.8 hPa | - | - | - | - |
| 1788071584 | 25.56° C | 73% | 1011.8 hPa | - | - | - | - |
| 1788070684 | 25° C | 74% | 1011.7 hPa | - | - | - | - |
| 1788069784 | 24.44° C | 76% | 1011.8 hPa | - | - | - | - |
| 1788068881 | 23.89° C | 78% | 1011.7 hPa | - | - | - | - |
| 1788067981 | 23.33° C | 79% | 1011.7 hPa | - | - | - | - |
| 1788067081 | 22.78° C | 80% | 1011.6 hPa | - | - | - | - |
| 1788066181 | 22.78° C | 81% | 1011.6 hPa | - | - | - | - |
| 1788065281 | 22.78° C | 80% | 1011.5 hPa | - | - | - | - |
| 1788064381 | 22.22° C | 80% | 1011.5 hPa | - | - | - | - |
* Rain since midnight (hover to see other rain measurements)
** Current wind speed in m/s (hover to see current wind gust speed)